[[{"header":{"parameterUnit":"m.s-1","parameterCategory":1,"la1":30.2991,"la2":30.254,"lo1":-89.0895,"lo2":-89.0444,"dy":0.0017,"dx":0.0017,"nx":28,"ny":28,"refTime":"2025-09-04T09:00:00:Z","depth":0,"parameterNumber":2,"parameterNumberName":"U-component_of_WINDS"},"data":[0,0,0,0,0,0,0,0,0,0,0,0,0,0,0,0,0,0,0,0,0,0,0,0,0,0,0,0,0,0,0,0,0,0,0,0,0,0,0,0,0,0,0,0,0,0,0,0,0,0,0,0,0,0,0,0,0,0,-1.7082,-1.7081,0,-1.7067,-1.7067,-1.7066,-1.7013,-1.7011,-1.701,-1.7009,-1.6995,-1.6996,-1.6997,0,0,0,0,0,0,0,0,0,0,0,0,0,-1.7066,-1.7066,-1.7082,-1.7081,-1.7081,-1.7067,-1.7067,-1.7066,-1.7013,-1.7011,-1.701,-1.7008,-1.6995,-1.6996,-1.6997,0,0,0,0,0,0,0,0,0,0,0,0,0,-1.7064,-1.7067,-1.7082,-1.7053,-1.705,-1.7067,-1.7067,-1.7066,-1.7013,-1.7011,-1.7009,-1.7008,-1.6995,-1.6996,-1.6997,-1.7041,0,0,-1.7001,-1.7001,0,0,0,0,0,0,0,0,-1.7064,-1.7065,-1.7057,-1.7055,-1.7052,-1.704,-1.7056,-1.7058,-1.7014,-1.7027,-1.7009,-1.7007,-1.7012,-1.7011,-1.7013,-1.7041,-1.704,-1.7001,-1.7002,-1.7002,-1.7002,0,0,0,0,0,0,0,-1.7064,-1.7065,-1.7076,-1.7057,-1.7054,-1.7041,-1.7039,-1.7056,-1.703,-1.7026,-1.7022,-1.7021,-1.701,-1.7012,-1.7012,-1.704,-1.7001,-1.7002,-1.7003,-1.7003,-1.7105,-1.7107,0,0,0,0,0,0,-1.7068,-1.7066,-1.7076,-1.7075,-1.7053,-1.7043,-1.704,-1.7045,-1.703,-1.7025,-1.7022,-1.7018,-1.7011,-1.7011,-1.7011,-1.7063,-1.7002,-1.7003,-1.7004,-1.7103,-1.7105,-1.7107,0,0,0,0,0,0,-1.7068,-1.707,-1.7077,-1.7069,-1.7069,-1.7045,-1.7051,-1.7046,-1.7048,-1.7027,-1.7022,-1.7029,-1.7009,-1.701,-1.7034,-1.7061,-1.7004,-1.7005,-1.7101,-1.7104,-1.7106,-1.7165,0,0,0,0,0,0,-1.7068,-1.707,-1.7086,-1.707,-1.707,-1.71,-1.7053,-1.7047,-1.705,-1.7044,-1.7032,-1.7028,-1.7008,-1.7033,-1.7036,-1.7062,-1.7006,-1.7098,-1.7102,-1.7105,-1.7161,-1.717,-1.7178,0,0,0,0,0,-1.7068,-1.7103,-1.7087,-1.7089,-1.7089,-1.7101,-1.7101,-1.7076,-1.7052,-1.7068,-1.7055,-1.7028,-1.7058,-1.7036,-1.7038,-1.7066,-1.7096,-1.7101,-1.7105,-1.7157,-1.7168,-1.7177,0,0,0,0,0,0,-1.7123,-1.71,-1.7082,-1.7114,-1.711,-1.7092,-1.7111,-1.7089,-1.7092,-1.7087,-1.7057,-1.7055,-1.7084,-1.7077,-1.7053,-1.7108,-1.7073,-1.7078,-1.7111,-1.7122,-1.713,-1.7131,-1.7007,0,0,0,0,0,-1.7139,-1.715,-1.713,-1.716,-1.7159,-1.7136,-1.714,-1.7122,-1.7116,-1.7115,-1.7103,-1.71,-1.7109,-1.7115,-1.7122,-1.716,-1.7157,-1.718,-1.7188,-1.7195,-1.72,-1.7221,-1.7231,-1.7122,-1.7122,-1.7122,0,0,-1.7172,-1.7161,-1.717,-1.717,-1.7165,-1.7178,-1.7135,-1.715,-1.7159,-1.7117,-1.714,-1.7132,-1.7126,-1.7158,-1.7172,-1.7153,-1.723,-1.7201,-1.7207,-1.7208,-1.7227,-1.7237,-1.7246,-1.7125,-1.7125,-1.7124,0,0,-1.7238,-1.7231,-1.7255,-1.7251,-1.7243,-1.7228,-1.7234,-1.722,-1.7213,-1.7235,-1.7204,-1.7216,-1.7231,-1.7229,-1.7229,-1.7297,-1.7273,-1.73,-1.7344,-1.7365,-1.7373,-1.7381,-1.7405,-1.7414,-1.7305,-1.7305,-1.7305,0,-1.728,-1.7297,-1.727,-1.7288,-1.729,-1.7252,-1.7277,-1.7274,-1.727,-1.7273,-1.7252,-1.7271,-1.7265,-1.7296,-1.7313,-1.7315,-1.7321,-1.7301,-1.7374,-1.7381,-1.7388,-1.7411,-1.742,-1.7308,-1.7308,-1.7308,-1.7307,0,-1.7349,-1.7362,-1.7383,-1.7379,-1.7383,-1.7405,-1.7382,-1.739,-1.7372,-1.7359,-1.7383,-1.7374,-1.7379,-1.7385,-1.7367,-1.7414,-1.7403,-1.7379,-1.7343,-1.7402,-1.7423,-1.7432,-1.7313,-1.7312,-1.7311,-1.731,0,0,-1.7449,-1.7431,-1.7439,-1.7438,-1.7427,-1.7437,-1.7458,-1.7462,-1.7469,-1.7468,-1.7485,-1.75,-1.7477,-1.7478,-1.746,-1.7479,-1.7533,-1.7452,-1.7451,-1.7468,-1.7586,-1.7604,-1.7615,-1.7518,-1.7519,-1.752,-1.7586,0,-1.7512,-1.7545,-1.7522,-1.7559,-1.7571,-1.7536,-1.7554,-1.755,-1.754,-1.7549,-1.7537,-1.7548,-1.7518,-1.7518,-1.7535,-1.7523,-1.7557,-1.7518,-1.7533,-1.7534,-1.7536,-1.7625,-1.7645,-1.7707,-1.7594,-1.7596,-1.7597,0,-1.759,-1.7592,-1.763,-1.7619,-1.7623,-1.7639,-1.7642,-1.7651,-1.7647,-1.7638,-1.764,-1.7618,-1.7638,-1.7603,-1.7631,-1.7605,-1.761,-1.7606,-1.7608,-1.7608,-1.7569,-1.7628,-1.7726,-1.7736,-1.7609,-1.7608,-1.7607,0,-1.7659,-1.7672,-1.7696,-1.7696,-1.7683,-1.7696,-1.7691,-1.7685,-1.7689,-1.7692,-1.7695,-1.7701,-1.7704,-1.7709,-1.7689,-1.7665,-1.772,-1.7683,-1.7714,-1.7715,-1.7727,-1.7726,-1.7827,-1.773,-1.773,-1.773,-1.773,0,-1.7732,-1.7757,-1.7727,-1.7742,-1.777,-1.7744,-1.7772,-1.7764,-1.7759,-1.7773,-1.7743,-1.7757,-1.773,-1.7742,-1.7726,-1.7752,-1.7754,-1.7748,-1.7743,-1.775,-1.7751,-1.7753,-1.7748,-1.7732,-1.7732,-1.7731,-1.7731,0,-1.7814,-1.7795,-1.7819,-1.7806,-1.7803,-1.7823,-1.7812,-1.7826,-1.7814,-1.7832,-1.7834,-1.7815,-1.7827,-1.7808,-1.7818,-1.7808,-1.7844,-1.7833,-1.7845,-1.7842,-1.7874,-1.7871,-1.7979,-1.7993,-1.7888,-1.7889,-1.789,0,-1.7861,-1.788,-1.7868,-1.7875,-1.7872,-1.7883,-1.7888,-1.7864,-1.787,-1.7867,-1.7882,-1.7891,-1.7898,-1.7919,-1.7906,-1.7914,-1.7903,-1.7941,-1.7904,-1.7911,-1.7904,-1.7903,-1.7905,-1.7948,-1.7949,-1.795,-1.7951,0,-1.7948,-1.7938,-1.7946,-1.795,-1.7957,-1.7959,-1.796,-1.7967,-1.7942,-1.7951,-1.7962,-1.7967,-1.7978,-1.7988,-1.7993,-1.7989,-1.7966,-1.7963,-1.797,-1.7977,-1.7984,-1.7981,-1.7866,-1.796,-1.7959,-1.7959,-1.7958,-1.7958,-1.8015,-1.8029,-1.8024,-1.8033,-1.8031,-1.8033,-1.8045,-1.8035,-1.8044,-1.805,-1.8036,-1.8051,-1.8048,-1.8052,-1.8051,-1.8064,-1.8047,-1.8058,-1.8061,-1.8064,-1.8069,-1.7982,-1.8064,-1.8064,-1.8064,-1.8064,-1.8063,0,-1.81,-1.8095,-1.8104,-1.8106,-1.8114,-1.8092,-1.8091,-1.81,-1.8114,-1.8112,-1.8119,-1.8133,-1.8143,-1.8132,-1.8141,-1.8153,-1.8143,-1.8156,-1.8155,-1.8154,-1.8083,-1.8076,-1.8164,-1.8164,-1.8164,-1.8164,-1.8164,-1.8164,-1.8146,-1.817,-1.816,-1.8183,-1.8178,-1.8193,-1.8195,-1.8196,-1.8195,-1.8212,-1.822,-1.8213,-1.8208,-1.8216,-1.8224,-1.8221,-1.8226,-1.8242,-1.8236,-1.8169,-1.8159,-1.815,-1.8143,-1.8244,-1.8244,-1.8306,-1.8306,-1.8307]},{"header":{"parameterUnit":"m.s-1","parameterCategory":1,"la1":30.2991,"la2":30.254,"lo1":-89.0895,"lo2":-89.0444,"dy":0.0017,"dx":0.0017,"nx":28,"ny":28,"refTime":"2025-09-04T09:00:00:Z","depth":0,"parameterNumber":3,"parameterNumberName":"V-component_of_WINDS"},"data":[0,0,0,0,0,0,0,0,0,0,0,0,0,0,0,0,0,0,0,0,0,0,0,0,0,0,0,0,0,0,0,0,0,0,0,0,0,0,0,0,0,0,0,0,0,0,0,0,0,0,0,0,0,0,0,0,0,0,2.341,2.3409,0,2.3363,2.3363,2.3362,2.3349,2.335,2.335,2.335,2.3298,2.3296,2.3295,0,0,0,0,0,0,0,0,0,0,0,0,0,2.3483,2.3482,2.341,2.3409,2.3408,2.3363,2.3362,2.3362,2.3349,2.335,2.335,2.335,2.3298,2.3296,2.3295,0,0,0,0,0,0,0,0,0,0,0,0,0,2.3446,2.3482,2.341,2.3397,2.3395,2.3363,2.3362,2.3362,2.3349,2.335,2.335,2.335,2.3299,2.3297,2.3294,2.327,0,0,2.3287,2.3286,0,0,0,0,0,0,0,0,2.3448,2.3443,2.3399,2.3398,2.3396,2.3363,2.3369,2.3331,2.3349,2.3367,2.335,2.3351,2.3319,2.3315,2.3305,2.3268,2.3266,2.3286,2.3285,2.3284,2.3283,0,0,0,0,0,0,0,2.345,2.3445,2.3391,2.3399,2.3397,2.3392,2.3387,2.3362,2.3341,2.3365,2.3364,2.3359,2.3318,2.3307,2.3304,2.3265,2.3286,2.3284,2.3283,2.3282,2.3205,2.3205,0,0,0,0,0,0,2.3456,2.3447,2.3393,2.339,2.3423,2.339,2.3385,2.3373,2.3341,2.3337,2.3359,2.3359,2.3311,2.3306,2.3302,2.3271,2.3284,2.3282,2.328,2.3206,2.3205,2.3205,0,0,0,0,0,0,2.3457,2.3451,2.3394,2.3418,2.3411,2.3389,2.3375,2.3372,2.3361,2.3336,2.3332,2.3352,2.3311,2.3305,2.3278,2.3269,2.328,2.3278,2.3207,2.3206,2.3205,2.3211,0,0,0,0,0,0,2.346,2.3452,2.3443,2.3418,2.3409,2.3373,2.3375,2.337,2.3357,2.3357,2.3329,2.3325,2.3311,2.3282,2.3276,2.3266,2.3276,2.3207,2.3206,2.3205,2.3211,2.321,2.3209,0,0,0,0,0,2.3462,2.3446,2.3443,2.3437,2.3399,2.3373,2.3368,2.3354,2.3357,2.3347,2.3331,2.3325,2.3272,2.328,2.3272,2.3262,2.3208,2.3207,2.3205,2.3211,2.321,2.3209,0,0,0,0,0,0,2.3469,2.3442,2.3439,2.3414,2.3396,2.3371,2.3359,2.3353,2.3333,2.3333,2.3316,2.3309,2.3284,2.327,2.328,2.3237,2.3239,2.3237,2.3246,2.3245,2.3244,2.3247,2.3274,0,0,0,0,0,2.3468,2.3451,2.3428,2.3408,2.3399,2.3381,2.3369,2.336,2.334,2.3332,2.3314,2.3293,2.3272,2.3258,2.3237,2.3209,2.3202,2.3198,2.3197,2.3197,2.3194,2.3178,2.3176,2.3201,2.3201,2.3201,0,0,2.3465,2.3448,2.3438,2.3409,2.3394,2.3375,2.3374,2.3354,2.3339,2.3328,2.3302,2.3288,2.3264,2.3237,2.3224,2.3225,2.3186,2.3195,2.3195,2.3193,2.3177,2.3174,2.3172,2.32,2.32,2.32,0,0,2.3449,2.3436,2.3418,2.3403,2.3381,2.3369,2.3364,2.334,2.3331,2.3305,2.3296,2.3278,2.3241,2.3224,2.3211,2.319,2.3183,2.3183,2.3178,2.3162,2.316,2.3159,2.315,2.3147,2.3181,2.3181,2.3181,0,2.3448,2.3421,2.3408,2.3389,2.3376,2.3367,2.3348,2.3334,2.3305,2.3296,2.3297,2.3251,2.3234,2.3203,2.3198,2.3188,2.3181,2.3186,2.3162,2.316,2.3158,2.315,2.3147,2.3181,2.3181,2.3181,2.3181,0,2.3419,2.34,2.3388,2.3363,2.3348,2.3329,2.3313,2.3299,2.3292,2.3279,2.3253,2.3232,2.3207,2.3199,2.3191,2.3166,2.3167,2.3166,2.3168,2.3156,2.3148,2.3145,2.3181,2.3181,2.3181,2.3181,0,0,2.3406,2.3375,2.337,2.3359,2.3334,2.3318,2.3298,2.3275,2.3263,2.3244,2.3226,2.3195,2.3194,2.3179,2.3169,2.3155,2.3139,2.3155,2.3154,2.3152,2.311,2.311,2.3107,2.3135,2.3135,2.3134,2.3111,0,2.3387,2.3352,2.3341,2.3312,2.3293,2.3285,2.3267,2.3249,2.3237,2.3219,2.3204,2.3183,2.3183,2.3174,2.316,2.3144,2.313,2.3146,2.3117,2.3116,2.3122,2.3103,2.3104,2.3083,2.3108,2.3108,2.3107,0,2.336,2.3342,2.3311,2.3289,2.328,2.3265,2.3242,2.3226,2.3205,2.3197,2.318,2.3172,2.3149,2.3154,2.3122,2.3132,2.312,2.311,2.3109,2.3105,2.311,2.3097,2.3076,2.3073,2.3102,2.3103,2.3103,0,2.3352,2.332,2.3298,2.3288,2.3261,2.325,2.3239,2.3218,2.3205,2.3185,2.3176,2.3153,2.314,2.3122,2.3107,2.3112,2.3076,2.3079,2.3067,2.3067,2.3059,2.3059,2.3035,2.3053,2.3053,2.3053,2.3053,0,2.3332,2.3313,2.3294,2.328,2.3258,2.3245,2.3224,2.3211,2.3193,2.3176,2.3166,2.315,2.3131,2.3112,2.31,2.3074,2.3069,2.3061,2.3057,2.3061,2.3062,2.3052,2.3052,2.3052,2.3052,2.3052,2.3052,0,2.3319,2.3306,2.3281,2.3258,2.3252,2.3237,2.3217,2.3202,2.319,2.3168,2.3161,2.3142,2.3118,2.3102,2.3071,2.3063,2.3036,2.3033,2.3043,2.3041,2.303,2.3031,2.2997,2.2991,2.3014,2.3014,2.3014,0,2.3307,2.3292,2.3268,2.3257,2.3245,2.3226,2.3213,2.3199,2.3186,2.3161,2.3149,2.3126,2.3106,2.3069,2.3051,2.3027,2.3023,2.3013,2.3019,2.3023,2.3022,2.3022,2.302,2.3011,2.3011,2.3011,2.3011,0,2.3285,2.3279,2.3261,2.3241,2.3226,2.3208,2.3191,2.3182,2.3165,2.3149,2.3126,2.3111,2.3081,2.3057,2.3032,2.3018,2.3011,2.301,2.3005,2.3008,2.3014,2.301,2.3039,2.301,2.301,2.301,2.301,2.301,2.3271,2.3258,2.3239,2.3219,2.3205,2.3189,2.3175,2.3161,2.3142,2.3117,2.311,2.3086,2.3065,2.3031,2.3017,2.2996,2.2997,2.2991,2.2989,2.2988,2.2987,2.3019,2.2992,2.2992,2.2992,2.2992,2.2992,0,2.3249,2.3237,2.3218,2.3195,2.3179,2.3176,2.3157,2.3143,2.3122,2.3104,2.3085,2.3058,2.3035,2.3016,2.2992,2.2979,2.2976,2.2973,2.2974,2.297,2.2989,2.2994,2.2977,2.2977,2.2977,2.2977,2.2977,2.2977,2.3235,2.3212,2.3204,2.3174,2.3161,2.3139,2.3128,2.3113,2.3098,2.3069,2.305,2.3039,2.3019,2.2994,2.2972,2.2967,2.2958,2.2956,2.295,2.2967,2.2969,2.2971,2.2976,2.2955,2.2955,2.2933,2.2933,2.2933]}]]